Year,Month,Day,Hour,Minute,Value (Times are PST for temperature in C)
2011,04,23,00,00,3.10
2011,04,23,00,01,3.10
2011,04,23,00,02,3.10
2011,04,23,00,03,3.10
2011,04,23,00,04,3.10
2011,04,23,00,05,3.10
2011,04,23,00,06,3.00
2011,04,23,00,07,3.00
2011,04,23,00,08,3.00
2011,04,23,00,09,2.90
2011,04,23,00,10,2.90
2011,04,23,00,11,2.90
2011,04,23,00,12,2.90
2011,04,23,00,13,2.90
2011,04,23,00,14,2.90
2011,04,23,00,15,2.90
2011,04,23,00,16,2.90
2011,04,23,00,17,2.90
2011,04,23,00,18,2.90
2011,04,23,00,19,2.90
2011,04,23,00,20,3.00
2011,04,23,00,21,3.00
2011,04,23,00,22,3.10
2011,04,23,00,23,3.10
2011,04,23,00,24,3.10
2011,04,23,00,25,3.10
2011,04,23,00,26,3.10
2011,04,23,00,27,3.20
2011,04,23,00,28,3.20
2011,04,23,00,29,3.20
2011,04,23,00,30,3.20
2011,04,23,00,31,3.20
2011,04,23,00,32,3.20
2011,04,23,00,33,3.20
2011,04,23,00,34,3.20
2011,04,23,00,35,3.20
2011,04,23,00,36,3.20
2011,04,23,00,37,3.30
2011,04,23,00,38,3.30
2011,04,23,00,39,3.40
2011,04,23,00,40,3.40
2011,04,23,00,41,3.40
2011,04,23,00,42,3.40
2011,04,23,00,43,3.50
2011,04,23,00,44,3.50
2011,04,23,00,45,3.50
2011,04,23,00,46,3.60
2011,04,23,00,47,3.70
2011,04,23,00,48,3.70
2011,04,23,00,49,3.80
2011,04,23,00,50,3.80
2011,04,23,00,51,3.90
2011,04,23,00,52,3.90
2011,04,23,00,53,4.00
2011,04,23,00,54,4.00
2011,04,23,00,55,4.00
2011,04,23,00,56,4.00
2011,04,23,00,57,4.00
2011,04,23,00,58,4.00
2011,04,23,00,59,3.90
2011,04,23,01,00,3.90
2011,04,23,01,01,3.80
2011,04,23,01,02,3.80
2011,04,23,01,03,3.70
2011,04,23,01,04,3.70
2011,04,23,01,05,3.70
2011,04,23,01,06,3.60
2011,04,23,01,07,3.60
2011,04,23,01,08,3.50
2011,04,23,01,09,3.50
2011,04,23,01,10,3.50
2011,04,23,01,11,3.50
2011,04,23,01,12,3.50
2011,04,23,01,13,3.60
2011,04,23,01,14,3.60
2011,04,23,01,15,3.60
2011,04,23,01,16,3.70
2011,04,23,01,17,3.70
2011,04,23,01,18,3.70
2011,04,23,01,19,3.70
2011,04,23,01,20,3.70
2011,04,23,01,21,3.80
2011,04,23,01,22,3.80
2011,04,23,01,23,3.80
2011,04,23,01,24,3.80
2011,04,23,01,25,3.80
2011,04,23,01,26,3.80
2011,04,23,01,27,3.80
2011,04,23,01,28,3.80
2011,04,23,01,29,3.80
2011,04,23,01,30,3.80
2011,04,23,01,31,3.80
2011,04,23,01,32,3.90
2011,04,23,01,33,3.90
2011,04,23,01,34,3.90
2011,04,23,01,35,3.90
2011,04,23,01,36,3.90
2011,04,23,01,37,3.80
2011,04,23,01,38,3.80
2011,04,23,01,39,3.80
2011,04,23,01,40,3.80
2011,04,23,01,41,3.70
2011,04,23,01,42,3.70
2011,04,23,01,43,3.70
2011,04,23,01,44,3.70
2011,04,23,01,45,3.60
2011,04,23,01,46,3.60
2011,04,23,01,47,3.60
2011,04,23,01,48,3.50
2011,04,23,01,49,3.50
2011,04,23,01,50,3.60
2011,04,23,01,51,3.60
2011,04,23,01,52,3.60
2011,04,23,01,53,3.70
2011,04,23,01,54,3.70
2011,04,23,01,55,3.70
2011,04,23,01,56,3.70
2011,04,23,01,57,3.70
2011,04,23,01,58,3.60
2011,04,23,01,59,3.60
2011,04,23,02,00,3.60
2011,04,23,02,01,3.60
2011,04,23,02,02,3.50
2011,04,23,02,03,3.50
2011,04,23,02,04,3.50
2011,04,23,02,05,3.40
2011,04,23,02,06,3.40
2011,04,23,02,07,3.30
2011,04,23,02,08,3.40
2011,04,23,02,09,3.30
2011,04,23,02,10,3.30
2011,04,23,02,11,3.30
2011,04,23,02,12,3.30
2011,04,23,02,13,3.30
2011,04,23,02,14,3.20
2011,04,23,02,15,3.20
2011,04,23,02,16,3.20
2011,04,23,02,17,3.10
2011,04,23,02,18,3.10
2011,04,23,02,19,3.10
2011,04,23,02,20,3.00
2011,04,23,02,21,2.90
2011,04,23,02,22,2.90
2011,04,23,02,23,2.90
2011,04,23,02,24,2.80
2011,04,23,02,25,2.80
2011,04,23,02,26,2.80
2011,04,23,02,27,2.80
2011,04,23,02,28,2.70
2011,04,23,02,29,2.70
2011,04,23,02,30,2.70
2011,04,23,02,31,2.70
2011,04,23,02,32,2.60
2011,04,23,02,33,2.70
2011,04,23,02,34,2.70
2011,04,23,02,35,2.70
2011,04,23,02,36,2.60
2011,04,23,02,37,2.70
2011,04,23,02,38,2.70
2011,04,23,02,39,2.70
2011,04,23,02,40,2.70
2011,04,23,02,41,2.80
2011,04,23,02,42,2.80
2011,04,23,02,43,2.90
2011,04,23,02,44,2.90
2011,04,23,02,45,3.00
2011,04,23,02,46,3.10
2011,04,23,02,47,3.10
2011,04,23,02,48,3.20
2011,04,23,02,49,3.20
2011,04,23,02,50,3.20
2011,04,23,02,51,3.20
2011,04,23,02,52,3.10
2011,04,23,02,53,3.10
2011,04,23,02,54,3.00
2011,04,23,02,55,3.00
2011,04,23,02,56,2.90
2011,04,23,02,57,2.90
2011,04,23,02,58,2.90
2011,04,23,02,59,2.90
2011,04,23,03,00,2.80
2011,04,23,03,01,2.80
2011,04,23,03,02,2.80
2011,04,23,03,03,2.80
2011,04,23,03,04,2.70
2011,04,23,03,05,2.70
2011,04,23,03,06,2.70
2011,04,23,03,07,2.60
2011,04,23,03,08,2.50
2011,04,23,03,09,2.40
2011,04,23,03,10,2.30
2011,04,23,03,11,2.30
2011,04,23,03,12,2.30
2011,04,23,03,13,2.20
2011,04,23,03,14,2.20
2011,04,23,03,15,2.20
2011,04,23,03,16,2.10
2011,04,23,03,17,2.10
2011,04,23,03,18,2.10
2011,04,23,03,19,2.10
2011,04,23,03,20,2.00
2011,04,23,03,21,2.00
2011,04,23,03,22,2.00
2011,04,23,03,23,1.90
2011,04,23,03,24,1.90
2011,04,23,03,25,1.90
2011,04,23,03,26,1.90
2011,04,23,03,27,1.90
2011,04,23,03,28,1.90
2011,04,23,03,29,1.90
2011,04,23,03,30,1.90
2011,04,23,03,31,1.80
2011,04,23,03,32,1.80
2011,04,23,03,33,1.80
2011,04,23,03,34,1.80
2011,04,23,03,35,1.80
2011,04,23,03,36,1.80
2011,04,23,03,37,1.80
2011,04,23,03,38,1.80
2011,04,23,03,39,1.80
2011,04,23,03,40,1.80
2011,04,23,03,41,1.80
2011,04,23,03,42,1.80
2011,04,23,03,43,1.80
2011,04,23,03,44,1.90
2011,04,23,03,45,1.90
2011,04,23,03,46,2.00
2011,04,23,03,47,2.00
2011,04,23,03,48,2.10
2011,04,23,03,49,2.10
2011,04,23,03,50,2.20
2011,04,23,03,51,2.30
2011,04,23,03,52,2.30
2011,04,23,03,53,2.30
2011,04,23,03,54,2.30
2011,04,23,03,55,2.30
2011,04,23,03,56,2.30
2011,04,23,03,57,2.30
2011,04,23,03,58,2.30
2011,04,23,03,59,2.40
2011,04,23,04,00,2.40
2011,04,23,04,01,2.40
2011,04,23,04,02,2.40
2011,04,23,04,03,2.50
2011,04,23,04,04,2.50
2011,04,23,04,05,2.70
2011,04,23,04,06,2.90
2011,04,23,04,07,3.00
2011,04,23,04,08,3.20
2011,04,23,04,09,3.30
2011,04,23,04,10,3.40
2011,04,23,04,11,3.50
2011,04,23,04,12,3.60
2011,04,23,04,13,3.60
2011,04,23,04,14,3.70
2011,04,23,04,15,3.70
2011,04,23,04,16,3.70
2011,04,23,04,17,3.70
2011,04,23,04,18,3.70
2011,04,23,04,19,3.70
2011,04,23,04,20,3.70
2011,04,23,04,21,3.70
2011,04,23,04,22,3.70
2011,04,23,04,23,3.70
2011,04,23,04,24,3.70
2011,04,23,04,25,3.70
2011,04,23,04,26,3.70
2011,04,23,04,27,3.70
2011,04,23,04,28,3.70
2011,04,23,04,29,3.70
2011,04,23,04,30,3.70
2011,04,23,04,31,3.70
2011,04,23,04,32,3.80
2011,04,23,04,33,3.80
2011,04,23,04,34,3.80
2011,04,23,04,35,3.80
2011,04,23,04,36,3.90
2011,04,23,04,37,3.90
2011,04,23,04,38,4.00
2011,04,23,04,39,4.00
2011,04,23,04,40,4.00
2011,04,23,04,41,4.10
2011,04,23,04,42,4.10
2011,04,23,04,43,4.20
2011,04,23,04,44,4.30
2011,04,23,04,45,4.30
2011,04,23,04,46,4.40
2011,04,23,04,47,4.50
2011,04,23,04,48,4.60
2011,04,23,04,49,4.70
2011,04,23,04,50,4.80
2011,04,23,04,51,4.90
2011,04,23,04,52,5.00
2011,04,23,04,53,5.10
2011,04,23,04,54,5.20
2011,04,23,04,55,5.20
2011,04,23,04,56,5.30
2011,04,23,04,57,5.40
2011,04,23,04,58,5.40
2011,04,23,04,59,5.50
2011,04,23,05,00,5.50
2011,04,23,05,01,5.60
2011,04,23,05,02,5.70
2011,04,23,05,03,5.70
2011,04,23,05,04,5.70
2011,04,23,05,05,5.70
2011,04,23,05,06,5.70
2011,04,23,05,07,5.70
2011,04,23,05,08,5.70
2011,04,23,05,09,5.70
2011,04,23,05,10,5.60
2011,04,23,05,11,5.60
2011,04,23,05,12,5.60
2011,04,23,05,13,5.50
2011,04,23,05,14,5.50
2011,04,23,05,15,5.40
2011,04,23,05,16,5.40
2011,04,23,05,17,5.40
2011,04,23,05,18,5.40
2011,04,23,05,19,5.40
2011,04,23,05,20,5.30
2011,04,23,05,21,5.30
2011,04,23,05,22,5.30
2011,04,23,05,23,5.30
2011,04,23,05,24,5.30
2011,04,23,05,25,5.40
2011,04,23,05,26,5.40
2011,04,23,05,27,5.40
2011,04,23,05,28,5.30
2011,04,23,05,29,5.30
2011,04,23,05,30,5.30
2011,04,23,05,31,5.30
2011,04,23,05,32,5.30
2011,04,23,05,33,5.30
2011,04,23,05,34,5.30
2011,04,23,05,35,5.20
2011,04,23,05,36,5.20
2011,04,23,05,37,5.20
2011,04,23,05,38,5.10
2011,04,23,05,39,5.10
2011,04,23,05,40,5.10
2011,04,23,05,41,5.10
2011,04,23,05,42,5.00
2011,04,23,05,43,5.00
2011,04,23,05,44,4.90
2011,04,23,05,45,4.90
2011,04,23,05,46,4.90
2011,04,23,05,47,4.80
2011,04,23,05,48,4.80
2011,04,23,05,49,4.80
2011,04,23,05,50,4.80
2011,04,23,05,51,4.80
2011,04,23,05,52,4.80
2011,04,23,05,53,4.90
2011,04,23,05,54,4.90
2011,04,23,05,55,4.90
2011,04,23,05,56,4.90
2011,04,23,05,57,4.90
2011,04,23,05,58,5.00
2011,04,23,05,59,5.00
2011,04,23,06,00,5.10
2011,04,23,06,01,5.10
2011,04,23,06,02,5.10
2011,04,23,06,03,5.20
2011,04,23,06,04,5.20
2011,04,23,06,05,5.30
2011,04,23,06,06,5.30
2011,04,23,06,07,5.40
2011,04,23,06,08,5.40
2011,04,23,06,09,5.40
2011,04,23,06,10,5.40
2011,04,23,06,11,5.50
2011,04,23,06,12,5.50
2011,04,23,06,13,5.50
2011,04,23,06,14,5.50
2011,04,23,06,15,5.50
2011,04,23,06,16,5.50
2011,04,23,06,17,5.60
2011,04,23,06,18,5.60
2011,04,23,06,19,5.60
2011,04,23,06,20,5.60
2011,04,23,06,21,5.60
2011,04,23,06,22,5.60
2011,04,23,06,23,5.70
2011,04,23,06,24,5.70
2011,04,23,06,25,5.70
2011,04,23,06,26,5.70
2011,04,23,06,27,5.70
2011,04,23,06,28,5.70
2011,04,23,06,29,5.70
2011,04,23,06,30,5.70
2011,04,23,06,31,5.70
2011,04,23,06,32,5.70
2011,04,23,06,33,5.70
2011,04,23,06,34,5.70
2011,04,23,06,35,5.60
2011,04,23,06,36,5.60
2011,04,23,06,37,5.60
2011,04,23,06,38,5.50
2011,04,23,06,39,5.50
2011,04,23,06,40,5.40
2011,04,23,06,41,5.40
2011,04,23,06,42,5.40
2011,04,23,06,43,5.30
2011,04,23,06,44,5.30
2011,04,23,06,45,5.30
2011,04,23,06,46,5.30
2011,04,23,06,47,5.30
2011,04,23,06,48,5.30
2011,04,23,06,49,5.20
2011,04,23,06,50,5.20
2011,04,23,06,51,5.20
2011,04,23,06,52,5.30
2011,04,23,06,53,5.20
2011,04,23,06,54,5.20
2011,04,23,06,55,5.20
2011,04,23,06,56,5.30
2011,04,23,06,57,5.30
2011,04,23,06,58,5.30
2011,04,23,06,59,5.30
2011,04,23,07,00,5.30
2011,04,23,07,01,5.30
2011,04,23,07,02,5.40
2011,04,23,07,03,5.40
2011,04,23,07,04,5.50
2011,04,23,07,05,5.50
2011,04,23,07,06,5.60
2011,04,23,07,07,5.70
2011,04,23,07,08,5.70
2011,04,23,07,09,5.80
2011,04,23,07,10,5.90
2011,04,23,07,11,5.90
2011,04,23,07,12,6.00
2011,04,23,07,13,6.10
2011,04,23,07,14,6.10
2011,04,23,07,15,6.20
2011,04,23,07,16,6.20
2011,04,23,07,17,6.30
2011,04,23,07,18,6.30
2011,04,23,07,19,6.40
2011,04,23,07,20,6.40
2011,04,23,07,21,6.50
2011,04,23,07,22,6.50
2011,04,23,07,23,6.60
2011,04,23,07,24,6.60
2011,04,23,07,25,6.70
2011,04,23,07,26,6.70
2011,04,23,07,27,6.80
2011,04,23,07,28,6.80
2011,04,23,07,29,6.80
2011,04,23,07,30,6.90
2011,04,23,07,31,6.90
2011,04,23,07,32,7.00
2011,04,23,07,33,7.10
2011,04,23,07,34,7.20
2011,04,23,07,35,7.20
2011,04,23,07,36,7.20
2011,04,23,07,37,7.20
2011,04,23,07,38,7.30
2011,04,23,07,39,7.30
2011,04,23,07,40,7.40
2011,04,23,07,41,7.40
2011,04,23,07,42,7.50
2011,04,23,07,43,7.60
2011,04,23,07,44,7.60
2011,04,23,07,45,7.60
2011,04,23,07,46,7.60
2011,04,23,07,47,7.70
2011,04,23,07,48,7.80
2011,04,23,07,49,7.80
2011,04,23,07,50,7.90
2011,04,23,07,51,7.90
2011,04,23,07,52,7.90
2011,04,23,07,53,7.90
2011,04,23,07,54,8.00
2011,04,23,07,55,8.00
2011,04,23,07,56,8.10
2011,04,23,07,57,8.10
2011,04,23,07,58,8.10
2011,04,23,07,59,8.10
2011,04,23,08,00,8.10
2011,04,23,08,01,8.20
2011,04,23,08,02,8.20
2011,04,23,08,03,8.20
2011,04,23,08,04,8.30
2011,04,23,08,05,8.30
2011,04,23,08,06,8.30
2011,04,23,08,07,8.30
2011,04,23,08,08,8.30
2011,04,23,08,09,8.30
2011,04,23,08,10,8.30
2011,04,23,08,11,8.30
2011,04,23,08,12,8.30
2011,04,23,08,13,8.40
2011,04,23,08,14,8.40
2011,04,23,08,15,8.40
2011,04,23,08,16,8.50
2011,04,23,08,17,8.50
2011,04,23,08,18,8.50
2011,04,23,08,19,8.50
2011,04,23,08,20,8.50
2011,04,23,08,21,8.50
2011,04,23,08,22,8.50
2011,04,23,08,23,8.50
2011,04,23,08,24,8.50
2011,04,23,08,25,8.50
2011,04,23,08,26,8.50
2011,04,23,08,27,8.60
2011,04,23,08,28,8.60
2011,04,23,08,29,8.60
2011,04,23,08,30,8.70
2011,04,23,08,31,8.70
2011,04,23,08,32,8.80
2011,04,23,08,33,8.80
2011,04,23,08,34,8.80
2011,04,23,08,35,8.80
2011,04,23,08,36,8.80
2011,04,23,08,37,8.80
2011,04,23,08,38,8.90
2011,04,23,08,39,8.90
2011,04,23,08,40,8.90
2011,04,23,08,41,8.90
2011,04,23,08,42,8.90
2011,04,23,08,43,8.90
2011,04,23,08,44,8.90
2011,04,23,08,45,8.90
2011,04,23,08,46,8.90
2011,04,23,08,47,8.90
2011,04,23,08,48,8.90
2011,04,23,08,49,8.90
2011,04,23,08,50,8.90
2011,04,23,08,51,8.90
2011,04,23,08,52,8.90
2011,04,23,08,53,8.90
2011,04,23,08,54,9.00
2011,04,23,08,55,9.00
2011,04,23,08,56,9.10
2011,04,23,08,57,9.10
2011,04,23,08,58,9.10
2011,04,23,08,59,9.20
2011,04,23,09,00,9.20
2011,04,23,09,01,9.20
2011,04,23,09,02,9.30
2011,04,23,09,03,9.30
2011,04,23,09,04,9.30
2011,04,23,09,05,9.30
2011,04,23,09,06,9.30
2011,04,23,09,07,9.30
2011,04,23,09,08,9.20
2011,04,23,09,09,9.20
2011,04,23,09,10,9.10
2011,04,23,09,11,9.10
2011,04,23,09,12,9.00
2011,04,23,09,13,9.00
2011,04,23,09,14,9.10
2011,04,23,09,15,9.10
2011,04,23,09,16,9.10
2011,04,23,09,17,9.10
2011,04,23,09,18,9.20
2011,04,23,09,19,9.20
2011,04,23,09,20,9.20
2011,04,23,09,21,9.10
2011,04,23,09,22,9.10
2011,04,23,09,23,9.10
2011,04,23,09,24,9.10
2011,04,23,09,25,9.20
2011,04,23,09,26,9.30
2011,04,23,09,27,9.30
2011,04,23,09,28,9.40
2011,04,23,09,29,9.40
2011,04,23,09,30,9.40
2011,04,23,09,31,9.50
2011,04,23,09,32,9.50
2011,04,23,09,33,9.60
2011,04,23,09,34,9.60
2011,04,23,09,35,9.70
2011,04,23,09,36,9.70
2011,04,23,09,37,9.70
2011,04,23,09,38,9.70
2011,04,23,09,39,9.70
2011,04,23,09,40,9.70
2011,04,23,09,41,9.70
2011,04,23,09,42,9.70
2011,04,23,09,43,9.70
2011,04,23,09,44,9.70
2011,04,23,09,45,9.70
2011,04,23,09,46,9.70
2011,04,23,09,47,9.70
2011,04,23,09,48,9.70
2011,04,23,09,49,9.70
2011,04,23,09,50,9.70
2011,04,23,09,51,9.80
2011,04,23,09,52,9.80
2011,04,23,09,53,9.90
2011,04,23,09,54,9.90
2011,04,23,09,55,9.90
2011,04,23,09,56,9.90
2011,04,23,09,57,9.90
2011,04,23,09,58,9.90
2011,04,23,09,59,9.80
2011,04,23,10,00,9.80
2011,04,23,10,01,9.90
2011,04,23,10,02,9.90
2011,04,23,10,03,10.00
2011,04,23,10,04,10.00
2011,04,23,10,05,9.90
2011,04,23,10,06,9.90
2011,04,23,10,07,10.00
2011,04,23,10,08,10.00
2011,04,23,10,09,10.10
2011,04,23,10,10,10.10
2011,04,23,10,11,10.10
2011,04,23,10,12,10.10
2011,04,23,10,13,10.20
2011,04,23,10,14,10.30
2011,04,23,10,15,10.30
2011,04,23,10,16,10.30
2011,04,23,10,17,10.30
2011,04,23,10,18,10.30
2011,04,23,10,19,10.30
2011,04,23,10,20,10.20
2011,04,23,10,21,10.30
2011,04,23,10,22,10.30
2011,04,23,10,23,10.40
2011,04,23,10,24,10.50
2011,04,23,10,25,10.60
2011,04,23,10,26,10.60
2011,04,23,10,27,10.60
2011,04,23,10,28,10.60
2011,04,23,10,29,10.60
2011,04,23,10,30,10.60
2011,04,23,10,31,10.70
2011,04,23,10,32,10.70
2011,04,23,10,33,10.70
2011,04,23,10,34,10.60
2011,04,23,10,35,10.60
2011,04,23,10,36,10.60
2011,04,23,10,37,10.60
2011,04,23,10,38,10.60
2011,04,23,10,39,10.60
2011,04,23,10,40,10.50
2011,04,23,10,41,10.60
2011,04,23,10,42,10.60
2011,04,23,10,43,10.60
2011,04,23,10,44,10.70
2011,04,23,10,45,10.70
2011,04,23,10,46,10.70
2011,04,23,10,47,10.70
2011,04,23,10,48,10.70
2011,04,23,10,49,10.70
2011,04,23,10,50,10.70
2011,04,23,10,51,10.80
2011,04,23,10,52,10.80
2011,04,23,10,53,10.90
2011,04,23,10,54,10.90
2011,04,23,10,55,10.90
2011,04,23,10,56,10.90
2011,04,23,10,57,10.80
2011,04,23,10,58,10.80
2011,04,23,10,59,10.80
2011,04,23,11,00,10.90
2011,04,23,11,01,10.80
2011,04,23,11,02,10.80
2011,04,23,11,03,10.80
2011,04,23,11,04,10.70
2011,04,23,11,05,10.70
2011,04,23,11,06,10.70
2011,04,23,11,07,10.80
2011,04,23,11,08,10.80
2011,04,23,11,09,10.80
2011,04,23,11,10,10.80
2011,04,23,11,11,10.80
2011,04,23,11,12,10.80
2011,04,23,11,13,10.80
2011,04,23,11,14,10.90
2011,04,23,11,15,10.90
2011,04,23,11,16,11.00
2011,04,23,11,17,11.00
2011,04,23,11,18,11.00
2011,04,23,11,19,11.00
2011,04,23,11,20,11.00
2011,04,23,11,21,11.00
2011,04,23,11,22,10.90
2011,04,23,11,23,10.90
2011,04,23,11,24,11.00
2011,04,23,11,25,11.10
2011,04,23,11,26,11.20
2011,04,23,11,27,11.20
2011,04,23,11,28,11.30
2011,04,23,11,29,11.30
2011,04,23,11,30,11.40
2011,04,23,11,31,11.40
2011,04,23,11,32,11.40
2011,04,23,11,33,11.40
2011,04,23,11,34,11.40
2011,04,23,11,35,11.40
2011,04,23,11,36,11.50
2011,04,23,11,37,11.40
2011,04,23,11,38,11.40
2011,04,23,11,39,11.30
2011,04,23,11,40,11.20
2011,04,23,11,41,11.30
2011,04,23,11,42,11.40
2011,04,23,11,43,11.50
2011,04,23,11,44,11.50
2011,04,23,11,45,11.60
2011,04,23,11,46,11.60
2011,04,23,11,47,11.70
2011,04,23,11,48,11.70
2011,04,23,11,49,11.70
2011,04,23,11,50,11.70
2011,04,23,11,51,11.70
2011,04,23,11,52,11.70
2011,04,23,11,53,11.70
2011,04,23,11,54,11.60
2011,04,23,11,55,11.60
2011,04,23,11,56,11.60
2011,04,23,11,57,11.50
2011,04,23,11,58,11.50
2011,04,23,11,59,11.50
2011,04,23,12,00,11.60
2011,04,23,12,01,11.70
2011,04,23,12,02,11.80
2011,04,23,12,03,11.80
2011,04,23,12,04,11.80
2011,04,23,12,05,11.80
2011,04,23,12,06,11.80
2011,04,23,12,07,11.90
2011,04,23,12,08,11.90
2011,04,23,12,09,12.00
2011,04,23,12,10,12.00
2011,04,23,12,11,12.00
2011,04,23,12,12,12.00
2011,04,23,12,13,11.90
2011,04,23,12,14,11.90
2011,04,23,12,15,11.90
2011,04,23,12,16,11.80
2011,04,23,12,17,11.80
2011,04,23,12,18,11.80
2011,04,23,12,19,11.90
2011,04,23,12,20,11.90
2011,04,23,12,21,11.90
2011,04,23,12,22,11.90
2011,04,23,12,23,12.00
2011,04,23,12,24,12.00
2011,04,23,12,25,12.10
2011,04,23,12,26,12.20
2011,04,23,12,27,12.20
2011,04,23,12,28,12.30
2011,04,23,12,29,12.30
2011,04,23,12,30,12.30
2011,04,23,12,31,12.40
2011,04,23,12,32,12.50
2011,04,23,12,33,12.60
2011,04,23,12,34,12.50
2011,04,23,12,35,12.50
2011,04,23,12,36,12.60
2011,04,23,12,37,12.60
2011,04,23,12,38,12.60
2011,04,23,12,39,12.60
2011,04,23,12,40,12.50
2011,04,23,12,41,12.50
2011,04,23,12,42,12.50
2011,04,23,12,43,12.40
2011,04,23,12,44,12.40
2011,04,23,12,45,12.40
2011,04,23,12,46,12.50
2011,04,23,12,47,12.60
2011,04,23,12,48,12.70
2011,04,23,12,49,12.80
2011,04,23,12,50,12.80
2011,04,23,12,51,12.90
2011,04,23,12,52,12.90
2011,04,23,12,53,12.90
2011,04,23,12,54,12.90
2011,04,23,12,55,12.90
2011,04,23,12,56,12.90
2011,04,23,12,57,12.90
2011,04,23,12,58,13.00
2011,04,23,12,59,13.00
2011,04,23,13,00,13.00
2011,04,23,13,01,13.00
2011,04,23,13,02,13.10
2011,04,23,13,03,13.10
2011,04,23,13,04,13.20
2011,04,23,13,05,13.20
2011,04,23,13,06,13.20
2011,04,23,13,07,13.20
2011,04,23,13,08,13.20
2011,04,23,13,09,13.20
2011,04,23,13,10,13.20
2011,04,23,13,11,13.20
2011,04,23,13,12,13.10
2011,04,23,13,13,13.00
2011,04,23,13,14,13.00
2011,04,23,13,15,13.00
2011,04,23,13,16,13.00
2011,04,23,13,17,13.00
2011,04,23,13,18,13.00
2011,04,23,13,19,13.10
2011,04,23,13,20,13.20
2011,04,23,13,21,13.20
2011,04,23,13,22,13.30
2011,04,23,13,23,13.30
2011,04,23,13,24,13.30
2011,04,23,13,25,13.40
2011,04,23,13,26,13.40
2011,04,23,13,27,13.50
2011,04,23,13,28,13.50
2011,04,23,13,29,13.50
2011,04,23,13,30,13.60
2011,04,23,13,31,13.60
2011,04,23,13,32,13.70
2011,04,23,13,33,13.70
2011,04,23,13,34,13.70
2011,04,23,13,35,13.70
2011,04,23,13,36,13.60
2011,04,23,13,37,13.60
2011,04,23,13,38,13.60
2011,04,23,13,39,13.60
2011,04,23,13,40,13.70
2011,04,23,13,41,13.70
2011,04,23,13,42,13.80
2011,04,23,13,43,13.80
2011,04,23,13,44,13.70
2011,04,23,13,45,13.60
2011,04,23,13,46,13.50
2011,04,23,13,47,13.50
2011,04,23,13,48,13.50
2011,04,23,13,49,13.40
2011,04,23,13,50,13.30
2011,04,23,13,51,13.30
2011,04,23,13,52,13.40
2011,04,23,13,53,13.50
2011,04,23,13,54,13.50
2011,04,23,13,55,13.70
2011,04,23,13,56,13.80
2011,04,23,13,57,13.90
2011,04,23,13,58,14.10
2011,04,23,13,59,14.20
2011,04,23,14,00,14.20
2011,04,23,14,01,14.30
2011,04,23,14,02,14.40
2011,04,23,14,03,14.40
2011,04,23,14,04,14.30
2011,04,23,14,05,14.20
2011,04,23,14,06,14.20
2011,04,23,14,07,14.20
2011,04,23,14,08,14.20
2011,04,23,14,09,14.30
2011,04,23,14,10,14.30
2011,04,23,14,11,14.40
2011,04,23,14,12,14.40
2011,04,23,14,13,14.30
2011,04,23,14,14,14.30
2011,04,23,14,15,14.20
2011,04,23,14,16,14.30
2011,04,23,14,17,14.40
2011,04,23,14,18,14.50
2011,04,23,14,19,14.60
2011,04,23,14,20,14.60
2011,04,23,14,21,14.60
2011,04,23,14,22,14.50
2011,04,23,14,23,14.40
2011,04,23,14,24,14.40
2011,04,23,14,25,14.50
2011,04,23,14,26,14.50
2011,04,23,14,27,14.40
2011,04,23,14,28,14.40
2011,04,23,14,29,14.30
2011,04,23,14,30,14.30
2011,04,23,14,31,14.20
2011,04,23,14,32,14.30
2011,04,23,14,33,14.30
2011,04,23,14,34,14.30
2011,04,23,14,35,14.30
2011,04,23,14,36,14.20
2011,04,23,14,37,14.20
2011,04,23,14,38,14.20
2011,04,23,14,39,14.20
2011,04,23,14,40,14.20
2011,04,23,14,41,14.20
2011,04,23,14,42,14.20
2011,04,23,14,43,14.20
2011,04,23,14,44,14.20
2011,04,23,14,45,14.20
2011,04,23,14,46,14.30
2011,04,23,14,47,14.40
2011,04,23,14,48,14.40
2011,04,23,14,49,14.40
2011,04,23,14,50,14.50
2011,04,23,14,51,14.60
2011,04,23,14,52,14.60
2011,04,23,14,53,14.60
2011,04,23,14,54,14.70
2011,04,23,14,55,14.70
2011,04,23,14,56,14.70
2011,04,23,14,57,14.70
2011,04,23,14,58,14.70
2011,04,23,14,59,14.80
2011,04,23,15,00,14.70
2011,04,23,15,01,14.70
2011,04,23,15,02,14.70
2011,04,23,15,03,14.70
2011,04,23,15,04,14.70
2011,04,23,15,05,14.80
2011,04,23,15,06,14.80
2011,04,23,15,07,14.90
2011,04,23,15,08,15.00
2011,04,23,15,09,15.00
2011,04,23,15,10,15.00
2011,04,23,15,11,15.00
2011,04,23,15,12,15.00
2011,04,23,15,13,14.90
2011,04,23,15,14,14.80
2011,04,23,15,15,14.80
2011,04,23,15,16,14.80
2011,04,23,15,17,14.70
2011,04,23,15,18,14.70
2011,04,23,15,19,14.70
2011,04,23,15,20,14.70
2011,04,23,15,21,14.70
2011,04,23,15,22,14.80
2011,04,23,15,23,14.80
2011,04,23,15,24,14.80
2011,04,23,15,25,14.90
2011,04,23,15,26,15.00
2011,04,23,15,27,15.00
2011,04,23,15,28,15.00
2011,04,23,15,29,15.00
2011,04,23,15,30,15.00
2011,04,23,15,31,15.00
2011,04,23,15,32,15.00
2011,04,23,15,33,15.00
2011,04,23,15,34,15.10
2011,04,23,15,35,15.00
2011,04,23,15,36,15.00
2011,04,23,15,37,15.10
2011,04,23,15,38,15.00
2011,04,23,15,39,15.10
2011,04,23,15,40,15.10
2011,04,23,15,41,15.20
2011,04,23,15,42,15.20
2011,04,23,15,43,15.00
2011,04,23,15,44,15.00
2011,04,23,15,45,15.00
2011,04,23,15,46,15.10
2011,04,23,15,47,15.10
2011,04,23,15,48,15.00
2011,04,23,15,49,15.00
2011,04,23,15,50,15.00
2011,04,23,15,51,15.00
2011,04,23,15,52,15.00
2011,04,23,15,53,15.00
2011,04,23,15,54,15.00
2011,04,23,15,55,15.00
2011,04,23,15,56,15.00
2011,04,23,15,57,15.20
2011,04,23,15,58,15.30
2011,04,23,15,59,15.30
2011,04,23,16,00,15.30
2011,04,23,16,01,15.40
2011,04,23,16,02,15.40
2011,04,23,16,03,15.50
2011,04,23,16,04,15.60
2011,04,23,16,05,15.70
2011,04,23,16,06,15.60
2011,04,23,16,07,15.60
2011,04,23,16,08,15.60
2011,04,23,16,09,15.60
2011,04,23,16,10,15.60
2011,04,23,16,11,15.60
2011,04,23,16,12,15.60
2011,04,23,16,13,15.50
2011,04,23,16,14,15.50
2011,04,23,16,15,15.40
2011,04,23,16,16,15.30
2011,04,23,16,17,15.20
2011,04,23,16,18,15.20
2011,04,23,16,19,15.20
2011,04,23,16,20,15.30
2011,04,23,16,21,15.30
2011,04,23,16,22,15.30
2011,04,23,16,23,15.40
2011,04,23,16,24,15.40
2011,04,23,16,25,15.40
2011,04,23,16,26,15.40
2011,04,23,16,27,15.40
2011,04,23,16,28,15.30
2011,04,23,16,29,15.20
2011,04,23,16,30,15.20
2011,04,23,16,31,15.20
2011,04,23,16,32,15.30
2011,04,23,16,33,15.40
2011,04,23,16,34,15.40
2011,04,23,16,35,15.40
2011,04,23,16,36,15.30
2011,04,23,16,37,15.20
2011,04,23,16,38,15.20
2011,04,23,16,39,15.20
2011,04,23,16,40,15.20
2011,04,23,16,41,15.30
2011,04,23,16,42,15.30
2011,04,23,16,43,15.20
2011,04,23,16,44,15.10
2011,04,23,16,45,15.00
2011,04,23,16,46,15.00
2011,04,23,16,47,15.00
2011,04,23,16,48,15.00
2011,04,23,16,49,15.00
2011,04,23,16,50,15.00
2011,04,23,16,51,15.00
2011,04,23,16,52,15.00
2011,04,23,16,53,15.00
2011,04,23,16,54,15.10
2011,04,23,16,55,15.20
2011,04,23,16,56,15.30
2011,04,23,16,57,15.30
2011,04,23,16,58,15.30
2011,04,23,16,59,15.30
2011,04,23,17,00,15.30
2011,04,23,17,01,15.20
2011,04,23,17,02,15.20
2011,04,23,17,03,15.10
2011,04,23,17,04,15.10
2011,04,23,17,05,15.10
2011,04,23,17,06,15.10
2011,04,23,17,07,15.20
2011,04,23,17,08,15.20
2011,04,23,17,09,15.20
2011,04,23,17,10,15.20
2011,04,23,17,11,15.20
2011,04,23,17,12,15.20
2011,04,23,17,13,15.10
2011,04,23,17,14,15.10
2011,04,23,17,15,15.10
2011,04,23,17,16,15.10
2011,04,23,17,17,15.10
2011,04,23,17,18,15.10
2011,04,23,17,19,15.10
2011,04,23,17,20,15.10
2011,04,23,17,21,15.10
2011,04,23,17,22,15.10
2011,04,23,17,23,15.20
2011,04,23,17,24,15.20
2011,04,23,17,25,15.20
2011,04,23,17,26,15.20
2011,04,23,17,27,15.20
2011,04,23,17,28,15.20
2011,04,23,17,29,15.20
2011,04,23,17,30,15.30
2011,04,23,17,31,15.30
2011,04,23,17,32,15.50
2011,04,23,17,33,15.50
2011,04,23,17,34,15.60
2011,04,23,17,35,15.60
2011,04,23,17,36,15.60
2011,04,23,17,37,15.70
2011,04,23,17,38,15.70
2011,04,23,17,39,15.60
2011,04,23,17,40,15.60
2011,04,23,17,41,15.50
2011,04,23,17,42,15.50
2011,04,23,17,43,15.40
2011,04,23,17,44,15.40
2011,04,23,17,45,15.40